Previsão horária em Justynowka

Hoje, 22 Junho, Terça-feira

Tempo Temperatura Precipitação Vento Pressão Humidade
00:00 +20°C° 0 mm 3 m/s 745 mmHg 89%
01:00 +20°C° 0 mm 2 m/s 745 mmHg 91%
02:00 +20°C° 0 mm 2 m/s 745 mmHg 92%
03:00 +20°C° 0 mm 2 m/s 745 mmHg 92%
04:00 +19°C° 0 mm 2 m/s 745 mmHg 93%
05:00 +21°C° 0 mm 2 m/s 745 mmHg 86%
06:00 +24°C° 0 mm 2 m/s 745 mmHg 80%
07:00 +26°C° 0 mm 3 m/s 745 mmHg 73%
08:00 +27°C° 0 mm 2 m/s 745 mmHg 68%
09:00 +28°C° 0 mm 2 m/s 746 mmHg 63%
10:00 +30°C° 0 mm 2 m/s 746 mmHg 58%
11:00 +31°C° 0 mm 2 m/s 746 mmHg 54%
12:00 +32°C° 0 mm 2 m/s 746 mmHg 51%
13:00 +32°C° 0 mm 2 m/s 746 mmHg 48%
14:00 +33°C° 0.9 mm 3 m/s 746 mmHg 52%
15:00 +32°C° 0.9 mm 4 m/s 746 mmHg 55%
16:00 +30°C° 0.9 mm 5 m/s 746 mmHg 59%
17:00 +27°C° 1.6 mm 4 m/s 746 mmHg 68%
18:00 +24°C° 1.6 mm 3 m/s 747 mmHg 76%
19:00 +21°C° 1.6 mm 2 m/s 747 mmHg 85%
20:00 +20°C° 0.5 mm 2 m/s 747 mmHg 86%
21:00 +20°C° 0.5 mm 2 m/s 747 mmHg 87%
22:00 +21°C° 0.5 mm 1 m/s 748 mmHg 88%
23:00 +21°C° 0 mm 1 m/s 748 mmHg 88%

Amanhã, 23 Junho, Quarta-feira

Tempo Temperatura Precipitação Vento Pressão Humidade
00:00 +20°C° 0 mm 2 m/s 748 mmHg 89%
01:00 +20°C° 0 mm 2 m/s 748 mmHg 89%
02:00 +21°C° 0.2 mm 1 m/s 748 mmHg 91%
03:00 +21°C° 0.2 mm 1 m/s 748 mmHg 92%
04:00 +20°C° 0.2 mm 1 m/s 748 mmHg 94%
05:00 +21°C° 0 mm 1 m/s 749 mmHg 91%
06:00 +21°C° 0 mm 2 m/s 749 mmHg 87%
07:00 +23°C° 0 mm 2 m/s 750 mmHg 84%
08:00 +24°C° 0 mm 2 m/s 750 mmHg 79%
09:00 +26°C° 0 mm 2 m/s 750 mmHg 74%
10:00 +27°C° 0 mm 2 m/s 750 mmHg 69%
11:00 +28°C° 0 mm 2 m/s 750 mmHg 66%
12:00 +29°C° 0 mm 2 m/s 750 mmHg 62%
13:00 +30°C° 0 mm 2 m/s 750 mmHg 58%
14:00 +30°C° 0.4 mm 2 m/s 750 mmHg 60%
15:00 +29°C° 0.4 mm 2 m/s 750 mmHg 61%
16:00 +29°C° 0.4 mm 2 m/s 750 mmHg 63%
17:00 +28°C° 1.2 mm 2 m/s 750 mmHg 68%
18:00 +27°C° 1.2 mm 2 m/s 750 mmHg 74%
19:00 +26°C° 1.2 mm 2 m/s 750 mmHg 80%
20:00 +24°C° 0.5 mm 2 m/s 750 mmHg 84%
21:00 +23°C° 0.5 mm 2 m/s 750 mmHg 89%
22:00 +21°C° 0.5 mm 2 m/s 751 mmHg 93%
23:00 +20°C° 0.5 mm 2 m/s 751 mmHg 94%

Depois de amanhã, 24 Junho, Quinta-feira

Tempo Temperatura Precipitação Vento Pressão Humidade
00:00 +20°C° 0.5 mm 2 m/s 751 mmHg 95%
01:00 +19°C° 0.5 mm 2 m/s 751 mmHg 97%
02:00 +19°C° 0 mm 2 m/s 751 mmHg 97%
03:00 +19°C° 0 mm 2 m/s 751 mmHg 97%
04:00 +19°C° 0 mm 2 m/s 751 mmHg 97%
05:00 +20°C° 0 mm 2 m/s 751 mmHg 93%
06:00 +21°C° 0 mm 2 m/s 751 mmHg 90%
07:00 +23°C° 0 mm 2 m/s 751 mmHg 86%
08:00 +25°C° 0 mm 2 m/s 751 mmHg 80%
09:00 +26°C° 0 mm 2 m/s 751 mmHg 74%
10:00 +27°C° 0 mm 1 m/s 751 mmHg 69%
11:00 +28°C° 0 mm 1 m/s 751 mmHg 66%
12:00 +29°C° 0 mm 1 m/s 750 mmHg 63%
13:00 +30°C° 0 mm 1 m/s 750 mmHg 59%
14:00 +30°C° 0.1 mm 1 m/s 750 mmHg 59%
15:00 +30°C° 0.1 mm 1 m/s 750 mmHg 59%
16:00 +30°C° 0.1 mm 1 m/s 750 mmHg 59%
17:00 +29°C° 0.1 mm 2 m/s 749 mmHg 65%
18:00 +28°C° 0.1 mm 2 m/s 749 mmHg 71%
19:00 +27°C° 0.1 mm 3 m/s 749 mmHg 77%
20:00 +25°C° 0.3 mm 3 m/s 749 mmHg 81%
21:00 +24°C° 0.3 mm 2 m/s 749 mmHg 85%
22:00 +23°C° 0.3 mm 2 m/s 749 mmHg 89%
23:00 +23°C° 0.2 mm 2 m/s 748 mmHg 91%

25 Junho, Sexta-feira

Tempo Temperatura Precipitação Vento Pressão Humidade
00:00 +21°C° 0.2 mm 3 m/s 747 mmHg 92%
01:00 +21°C° 0.2 mm 3 m/s 747 mmHg 93%
02:00 +21°C° 1.9 mm 3 m/s 747 mmHg 94%
03:00 +21°C° 1.9 mm 3 m/s 746 mmHg 95%
04:00 +21°C° 1.9 mm 2 m/s 746 mmHg 96%
05:00 +22°C° 0.4 mm 3 m/s 746 mmHg 93%
06:00 +24°C° 0.4 mm 3 m/s 746 mmHg 89%
07:00 +25°C° 0.4 mm 3 m/s 746 mmHg 86%
08:00 +26°C° 0 mm 3 m/s 746 mmHg 79%
09:00 +27°C° 0 mm 4 m/s 747 mmHg 72%
10:00 +28°C° 0 mm 4 m/s 747 mmHg 64%
11:00 +28°C° 0 mm 5 m/s 747 mmHg 63%
12:00 +28°C° 0 mm 5 m/s 747 mmHg 61%
13:00 +28°C° 0 mm 5 m/s 747 mmHg 59%
14:00 +27°C° 0 mm 6 m/s 748 mmHg 63%
15:00 +26°C° 0 mm 6 m/s 748 mmHg 67%
16:00 +24°C° 0 mm 6 m/s 748 mmHg 71%
17:00 +23°C° 0 mm 6 m/s 749 mmHg 72%
18:00 +21°C° 0 mm 6 m/s 749 mmHg 74%
19:00 +20°C° 0 mm 5 m/s 749 mmHg 76%
20:00 +19°C° 0 mm 5 m/s 749 mmHg 80%
21:00 +18°C° 0 mm 4 m/s 750 mmHg 84%
22:00 +17°C° 0 mm 3 m/s 750 mmHg 87%
23:00 +17°C° 0 mm 3 m/s 750 mmHg 89%

26 Junho, Sábado

Tempo Temperatura Precipitação Vento Pressão Humidade
00:00 +16°C° 0 mm 3 m/s 750 mmHg 91%
01:00 +14°C° 0 mm 3 m/s 750 mmHg 93%
02:00 +14°C° 0 mm 3 m/s 750 mmHg 94%
03:00 +14°C° 0 mm 3 m/s 750 mmHg 95%
04:00 +14°C° 0 mm 3 m/s 750 mmHg 96%
05:00 +16°C° 0 mm 3 m/s 751 mmHg 90%
06:00 +17°C° 0 mm 3 m/s 751 mmHg 83%
07:00 +19°C° 0 mm 4 m/s 751 mmHg 77%
08:00 +20°C° 0 mm 4 m/s 751 mmHg 73%
09:00 +21°C° 0 mm 4 m/s 751 mmHg 69%
10:00 +22°C° 0 mm 4 m/s 751 mmHg 65%
11:00 +23°C° 0 mm 4 m/s 751 mmHg 61%
12:00 +25°C° 0 mm 4 m/s 751 mmHg 58%
13:00 +26°C° 0 mm 4 m/s 751 mmHg 54%
14:00 +25°C° 0 mm 4 m/s 751 mmHg 56%
15:00 +25°C° 0 mm 4 m/s 751 mmHg 57%
16:00 +24°C° 0 mm 3 m/s 751 mmHg 59%
17:00 +24°C° 0 mm 3 m/s 751 mmHg 63%
18:00 +23°C° 0 mm 2 m/s 750 mmHg 67%
19:00 +22°C° 0 mm 1 m/s 750 mmHg 71%
20:00 +20°C° 0 mm 2 m/s 750 mmHg 74%
21:00 +19°C° 0 mm 2 m/s 751 mmHg 76%
22:00 +18°C° 0 mm 2 m/s 751 mmHg 79%
23:00 +17°C° 0 mm 2 m/s 751 mmHg 81%

27 Junho, Domingo

Tempo Temperatura Precipitação Vento Pressão Humidade
00:00 +17°C° 0 mm 2 m/s 751 mmHg 83%
01:00 +16°C° 0 mm 1 m/s 751 mmHg 86%
02:00 +16°C° 0 mm 1 m/s 751 mmHg 86%
03:00 +16°C° 0 mm 1 m/s 751 mmHg 87%
04:00 +16°C° 0 mm 1 m/s 751 mmHg 87%
05:00 +18°C° 0 mm 1 m/s 751 mmHg 84%
06:00 +19°C° 0 mm 1 m/s 751 mmHg 81%
07:00 +20°C° 0 mm 1 m/s 751 mmHg 77%
08:00 +20°C° 0.2 mm 1 m/s 751 mmHg 80%
09:00 +20°C° 0.2 mm 1 m/s 752 mmHg 82%
10:00 +20°C° 0.2 mm 1 m/s 752 mmHg 84%
11:00 +21°C° 0.2 mm 1 m/s 752 mmHg 79%
12:00 +22°C° 0.2 mm 1 m/s 752 mmHg 73%
13:00 +21°C° 0.2 mm 0 m/s 752 mmHg 68%
14:00 +22°C° 0.5 mm 0 m/s 751 mmHg 66%
15:00 +22°C° 0.5 mm 0 m/s 751 mmHg 64%
16:00 +22°C° 0.5 mm 0 m/s 751 mmHg 61%
17:00 +24°C° 0.3 mm 1 m/s 751 mmHg 66%
18:00 +23°C° 0.3 mm 1 m/s 751 mmHg 71%
19:00 +22°C° 0.3 mm 1 m/s 751 mmHg 75%
20:00 +21°C° 0 mm 1 m/s 751 mmHg 78%
21:00 +20°C° 0 mm 1 m/s 751 mmHg 81%
22:00 +19°C° 0 mm 1 m/s 751 mmHg 84%
23:00 +19°C° 0 mm 1 m/s 751 mmHg 85%
Mostrar mais

Necessitamos do seu Consentimento

A Meteoprog e os seus Fornecedores de Serviços podem armazenar e aceder a dados pessoais como cookies, identificadores do dispositivo ou outras tecnologias semelhantes existentes no seu dispositivo e processar estes dados para personalizar conteúdos e anúncios, assim como funcionalidades nas redes sociais e análise de tráfego.

  • Armazenar e/ou aceder a informações no seu dispositivo

    Os cookies, identificadores do dispositivo ou outras informações podem ser armazenados ou acedidos no seu dispositivo, para os fins acima indicados.

  • Anúncios e conteúdos personalizados, medição de anúncios e conteúdos, dados sobre o público-alvo e desenvolvimento de produtos

    Os anúncios e os conteúdos podem ser personalizados com base num perfil. Podem ser adicionados dados adicionais para uma maior personalização dos anúncios e dos conteúdos. A eficácia dos anúncios e dos conteúdos pode ser medida. Podem ser obtidas informações sobre o público que visualizou os anúncios e os conteúdos. Estes dados podem ser usados para desenvolver ou melhorar sistemas, softwares ou a experiência do utilizador.

Ao clicar em "Eu concordo”, permitirá o uso de cookies, identificadores do dispositivo e web beacons mencionados ou outras tecnologias semelhantes. As configurações do navegador do seu dispositivo podem ser alteradas.

Para certos fins, podem ser invocados interesses legítimos ao invés de consentimento. Pode ler mais informação sobre este assunto na nossa Política de Privacidade e Cookies.